CDT,Max TemperatureF,Mean TemperatureF,Min TemperatureF,Max Dew PointF,MeanDew PointF,Min DewpointF,Max Humidity, Mean Humidity, Min Humidity, Max Sea Level PressureIn, Mean Sea Level PressureIn, Min Sea Level PressureIn, Max VisibilityMiles, Mean VisibilityMiles, Min VisibilityMiles, Max Wind SpeedMPH, Mean Wind SpeedMPH, Max Gust SpeedMPH,PrecipitationIn, CloudCover, Events, WindDirDegrees
2012-10-1,75,70,64,66,61,58,87,77,56,29.80,29.69,29.60,,,,12,8,25,0.00,,,311
2012-10-2,80,71,63,64,60,54,93,69,46,29.97,29.88,29.81,,,,5,1,,0.01,,,133
2012-10-3,84,74,66,68,65,62,90,75,49,30.10,30.03,29.96,,,,6,1,,0.00,,,137
2012-10-4,86,77,70,72,69,64,93,78,49,30.19,30.14,30.10,,,,9,1,,0.01,,,159
2012-10-5,84,77,70,71,68,64,93,77,54,30.14,30.07,30.01,,,,7,1,,0.01,,,0
2012-10-6,84,77,68,70,67,64,93,75,51,30.03,29.99,29.94,,,,7,2,,0.00,,,343
2012-10-7,73,65,57,62,56,52,87,76,59,30.11,30.06,30.01,,,,9,7,16,0.00,,,7
2012-10-8,73,64,55,56,52,48,89,70,51,30.16,30.11,30.06,,,,8,5,,0.00,,,8
2012-10-9,75,65,55,64,57,53,93,73,53,30.13,30.07,30.01,,,,6,1,,0.00,,,231
2012-10-10,84,74,66,71,68,64,93,81,62,30.16,30.10,30.04,,,,5,1,,0.00,,,130
2012-10-11,84,75,66,69,67,65,93,76,53,30.21,30.16,30.13,,,,6,1,,0.00,,,132
2012-10-12,84,75,66,71,68,64,93,79,58,30.22,30.18,30.15,,,,8,2,,0.00,,,140
2012-10-13,84,76,70,73,70,68,93,79,60,30.19,30.13,30.08,,,,13,3,22,0.00,,,138
2012-10-14,86,80,77,74,73,71,90,77,65,30.12,30.04,30.00,,,,6,3,,0.00,,,164
2012-10-15,84,76,68,75,67,61,91,72,49,30.02,29.98,29.92,,,,7,3,,0.16,,,335
2012-10-16,82,72,63,67,62,59,87,72,54,29.97,29.90,29.83,,,,9,2,,0.01,,,128
2012-10-17,82,76,69,75,70,64,93,78,65,29.84,29.79,29.73,,,,8,2,17,0.00,,,160
2012-10-18,84,76,66,76,62,47,90,62,28,29.92,29.82,29.74,,,,9,4,17,0.00,,,360
2012-10-19,79,70,62,57,48,39,68,45,24,29.98,29.93,29.90,,,,8,3,,0.00,,,299
2012-10-20,80,70,60,59,54,47,83,57,31,30.01,29.97,29.93,,,,6,2,,0.00,,,139
2012-10-21,82,72,62,65,62,59,90,75,51,30.08,30.03,29.97,,,,9,2,16,0.00,,,121
2012-10-22,82,72,64,65,64,61,90,75,56,30.10,30.05,30.02,,,,10,3,16,0.01,,,129
2012-10-23,84,75,66,70,66,63,93,76,49,30.05,30.01,29.98,,,,8,1,,0.00,,,128
2012-10-24,84,78,71,70,68,65,91,77,53,30.05,30.00,29.96,,,,10,3,,0.00,,,121
2012-10-25,84,76,69,71,68,66,93,79,56,29.98,29.94,29.90,,,,7,1,,0.00,,,136
2012-10-26,84,71,57,70,65,52,97,78,51,30.03,29.96,29.91,,,,10,3,21,0.00,,,3
2012-10-27,66,58,52,50,46,41,80,68,48,30.09,30.03,29.97,,,,12,9,22,0.00,,,352
2012-10-28,66,55,44,41,36,31,82,55,28,30.17,30.11,30.05,,,,10,6,23,0.00,,,352
2012-10-29,66,55,44,39,36,32,79,52,29,30.23,30.16,30.09,,,,12,5,22,0.00,,,359
2012-10-30,64,54,44,56,43,35,87,65,41,30.14,30.09,30.04,,,,7,2,,0.00,,,256
2012-10-31,75,65,57,64,59,53,90,79,64,30.07,30.02,29.98,,,,6,1,,0.00,,,205